Hourly Data Report for February 11, 2004

TORONTO CITY
ONTARIO

43°40'00.000" N
79°24'00.000" W
112.50 m
6158355
71508
XTO

Download Data

Hourly Data (February 2004)
Hourly Data Report for February 11, 2004
TIME
LST
Temp Definition
°C
Dew Point Definition
°C
Rel Hum Definition
%
Precip. Amount Definition
mm

Wind Dir Definition
10's deg

Wind Spd Definition
km/h
Visibility Definition
km
Stn Press Definition
kPa
Hmdx Definition


Wind Chill Definition


Weather Definition


00:00 -2.9 -6.7 75   LegendMM LegendMM LegendMM 100.00     LegendNANA
01:00 -3.3 -6.6 78   LegendMM LegendMM LegendMM 100.09     LegendNANA
02:00 -2.8 -6.7 74   LegendMM LegendMM LegendMM 100.17     LegendNANA
03:00 -3.5 -8.5 68   LegendMM LegendMM LegendMM 100.28     LegendNANA
04:00 -3.9 -8.7 69   LegendMM LegendMM LegendMM 100.34     LegendNANA
05:00 -4.1 -7.7 76   LegendMM LegendMM LegendMM 100.40     LegendNANA
06:00 -4.3 -7.7 77   LegendMM LegendMM LegendMM 100.47     LegendNANA
07:00 -4.8 -8.7 74   LegendMM LegendMM LegendMM 100.55     LegendNANA
08:00 -5.0 -9.1 73   LegendMM LegendMM LegendMM 100.64     LegendNANA
09:00 -4.7 -9.9 67   LegendMM LegendMM LegendMM 100.74     LegendNANA
10:00 -5.0 -9.9 68   LegendMM LegendMM LegendMM 100.83     LegendNANA
11:00 -4.1 -9.4 67   LegendMM LegendMM LegendMM 100.90     LegendNANA
12:00 -3.8 -9.4 65   LegendMM LegendMM LegendMM 100.91     LegendNANA
13:00 -3.1 -9.3 62   LegendMM LegendMM LegendMM 100.90     LegendNANA
14:00 -2.5 -9.4 59   LegendMM LegendMM LegendMM 100.89     LegendNANA
15:00 -2.4 -9.5 58   LegendMM LegendMM LegendMM 100.89     LegendNANA
16:00 -2.1 -9.5 57   LegendMM LegendMM LegendMM 100.90     LegendNANA
17:00 -2.1 -9.4 57   LegendMM LegendMM LegendMM 100.89     LegendNANA
18:00 -2.1 -9.2 58   LegendMM LegendMM LegendMM 100.94     LegendNANA
19:00 -2.1 -9.6 56   LegendMM LegendMM LegendMM 100.98     LegendNANA
20:00 -2.4 -9.4 59   LegendMM LegendMM LegendMM 101.00     LegendNANA
21:00 -2.5 -9.1 60   LegendMM LegendMM LegendMM 100.95     LegendNANA
22:00 -2.8 -8.6 64   LegendMM LegendMM LegendMM 100.95     LegendNANA
23:00 -2.6 -8.1 66   LegendMM LegendMM LegendMM 100.98     LegendNANA

Notes on Data Quality.

Legend

  • E = Estimated
  • M = Missing
  • NA = Not Available*
  • [empty] = Indicates an unobserved value
Date modified: